Погода в Коркодоне

Погода в Коркодоне : погода сейчас, прогноз погоды и архив. Всё, что Вы хотите узнать о погоде в Коркодоне!

Поиск расширенной информации на нашем сайте:

Другие новости

Новости СМИ2

Главная страница сайта

Новости сайта

03.07.2017

Напоминаем, что на нашем специализированном сайте Метеоцентр.Азия вы можете получить высокодетализированные автоматические прогнозы погоды по пунктам России, СНГ и мира в авиационном формате (включающие направление и скорость ветра, видимость, явления погоды, количество и форму облачности, нижнюю и верхнюю границу облачности).


Погода в Коркодоне - сегодня

Время (UTC), дата Ветер
(°,м/с) 
Видим.   Явления Облачность Т
(°С)
Тd
(°С)
f(%) Тe
(°С)
Pmin
(гПа)
dP
(гПа)
Po
(мм)
O2
(г/м3)
Тmin Tmax R s Состояние
почвы
03 21.09.17 160 (Ю) 20000 м    4/0 верхняя 
[Ci fib]
+15 -0.9 34 +15  1009.9  -1.1  749  286           
06 21.09.17 150 (ЮВ) 20000 м    4/0 верхняя 
[Ci fib]
+15.4 -0.9 33 +16  1009.1  -0.7  748  285           
09 21.09.17 020 (С) 20000 м    6/0 средняя, верхняя 
[Ac trans|Ci fib]
+7 -0.2 60 +7  1010.2  0.7  749  294    +15.4       
12 21.09.17 090 (В) 20000 м    9/3 1000 м средняя, верхняя 
[Sc|Ac trans|Ci fib]
+7 +0.4 63 +8  1010.5  0.3  749  294           
15 21.09.17 080 (В) 20000 м    6/3 1000 м верхняя 
[Sc|Ci fib]
+2.7 -0.2 81 +2  1010.9  0.2  749  299           
18 21.09.17 090 (В) 20000 м    8/3 1000 м средняя 
[Sc|Ac trans]
+2.6 +1 89 +2  1010.8  -0.1  749  299           
21 21.09.17 110 (В) 20000 м    8/8 1000 м 
[Sc]
+5.3 +1.5 76 +5  1010.9  0.3  749  296  -0.2        влажная 
00 22.09.17 120 (ЮВ) 20000 м    9/6 1000 м средняя 
[Sc|Ac trans]
+9.7 +3.2 64 +11  1010.3  -0.4  749  291           
03 22.09.17 160 (Ю) 20000 м    8/8 1000 м 
[Sc]
+15 +4.5 49 +15  1009.2  -0.9  748  285           
06 22.09.17 150 (ЮВ) 20000 м    8/8 1000 м 
[Sc]
+14.8 +4.2 49 +16  1009.2  -0.1  748  285           
09 22.09.17 110 (В) 20000 м    8/8 1000 м 
[Sc]
+12.8 +4.5 57 +14  1010  0.8  749  287    +15.1       
12 22.09.17 030 (СВ) 20000 м    9/9 1000 м 
[Sc]
+10.8 +5.1 68 +12  1010.9  0.8  749  290           
15 22.09.17 060 (СВ) 20000 м    9/9 1000 м 
[Sc]
+8.5 +4.4 75 +10  1012  0.9  750  292           
18 22.09.17 090 (В) 20000 м    9/9 1000 м 
[Sc]
+7.9 +4 76 +9  1012.4  0.4  750  293           
21 22.09.17 130 (ЮВ) 20000 м    10/10 1000 м 
[Sc]
+7.4 +4.2 80 +8  1013.1  0.7  751  294  +6.7        влажная 
00 23.09.17 070 (В) 20000 м  в посл. час ливневой дождь  10/10 1000 м кучево-дожд. 
[Cb cap]
+7.6 +6.6 93 +9               
03 23.09.17 270 (З) 20000 м    10/10 1000 м кучево-дожд. 
[Cb cap]
+9.5 +6.7 83 +11  1013.1  -0.3  751  291           
06 23.09.17 250 (З) 20000 м    9/9 1000 м 
[Sc]
+10.6 +6.6 76 +12  1012.4  -0.7  750  290           
09 23.09.17 350 (С) 20000 м    9/9 1000 м 
[Sc]
+10.6 +5.4 70 +11  1012.9  0.5  751  290    +10.9  0.6     
12 23.09.17 020 (С) 20000 м    9/9 1000 м 
[Sc]
+10.4 +4.9 69 +11  1013.1  0.2  751  291           
15 23.09.17 180 (Ю) 20000 м    10/10 1000 м 
[Sc]
+7.5 +5.3 86 +8  1013.3  0.1  751  294           
18 23.09.17 тихо ()   20000 м    10/10 1000 м 
[Sc]
+5.3 +5.1 99 +5  1013.7  0.4  751  296           
21 23.09.17 тихо ()   20000 м    10/10 1000 м кучево-дожд. 
[Cb cap]
+5 +5 100 +5  1014.8  1.1  752  297  +4.6        влажная 
00 24.09.17 270 (З) 20000 м    10/10 600 м кучево-дожд. 
[Cb cap]
+8.1 +5.7 85 +8  1015  0.2  752  293           
03 24.09.17 230 (ЮЗ) 20000 м    10/10 1000 м 
[Sc]
+10.7 +5 68 +12  1014.4  -0.5  752  291           
Время (UTC), дата Ветер
(°,м/с) 
Видим.   Явления Облачность Т
(°С)
Тd
(°С)
f(%) Тe
(°С)
Pmin
(гПа)
dP
(гПа)
Po
(мм)
O2
(г/м3)
Тmin Tmax R s Состояние
почвы

Для получения пояснительной информации подведите курсор к названию столбца.

ПОГОДА в Коркодоне - архив

Всё, что Вы хотите узнать о погоде в Коркодоне - удобно и подробно!

Выберите нужную дату (начиная с 1 января 2015* года) и нажмите кнопку "Найти".
Будут отображены архивные сводки погоды по пункту Коркодон, начиная с указанной даты.


Отображать данные в формате CSV (для использования в таблицах Excel)


Внимание! Наш архив погоды предназначен исключительно для личного некоммерческого использования в познавательных целях. Если Вам необходимы официальные справки о состоянии погоды (для производственных, юридических, коммерческих и т.п. целей), обращайтесь в органы Росгидромета.

*Примечание: данная дата относится к архиву по метеостанциям СССР (Россия, СНГ, Балтия).
Архив по метеостанциям Зарубежной Европы и Азии (кроме Китая) хранится 10 дней, по другим регионам земного шара (Китай, Африка, Америка, Австралия, Океания) - 1 день.

Коркодон - район местоположения метеостанции


Название, широта, долгота, высота метеостанции:
Коркодон 64.7°ш. 154.1°д. 101 м над ур. моря [Российская Федерация]

Дополнительная информация

В oтличие oт бoльшинства пoгoдных сайтoв мы публикуем пoдрoбную метеoинфoрмацию в детальнoм прoфессиoнальнoм фoрмате.

Характеристики температуры и влажнoсти вoздуха измеряются на высoте 2 м в тени вдали oт зданий и деревьев.
Скoрoсть ветра измеряется на высoте 10 м (на урoвне рoста челoвека скoрoсть ветра ниже в 1.5-2 раза). Если метеoстанция нахoдится в гoрoде или в лесу, тo скoрoсть ветра занижена на 2-4 м/с пo сравнению с oткрытым местoм. Скoрoсть ветра над акватoриями крупных рек и oзёр, а также на вершинах хoлмoв на 2-5 м/с выше, чем в oбычных услoвиях.
Атмoсфернoе давление в разных тoчках местнoсти мoжет значительнo oтличаться oт давления на метеoстанции, в зависимoсти oт услoвий рельефа (при пoдъёме на 10 м давление пoнижается примернo на 1 мм рт.ст.).